Regional Weather Roundup
Issued by NWS

Home | Current Version | Previous Version | Graphics & Text | Print | Product List | Glossary On
Versions: 1 2 3 4 5 6 7 8 9 10 11 12 13 14 15 16 17 18 19 20 21 22 23 24 25 26 27 28 29 30 31 32 33 34 35 36 37 38 39 40 41 42 43 44 45 46 47 48 49 50
000
ASUS43 KFSD 200602
RWRSD

WEATHER ROUNDUP FOR SOUTH DAKOTA
NATIONAL WEATHER SERVICE SIOUX FALLS SD
1200 AM CST MON FEB 20 2017

NOTE: "FAIR" INDICATES FEW OR NO CLOUDS BELOW 12,000 FEET WITH NO
SIGNIFICANT WEATHER AND/OR OBSTRUCTIONS TO VISIBILITY.


SDZ001>005-009-010-012>017-200700-
NORTHWEST AND NORTH CENTRAL SOUTH DAKOTA

CITY           SKY/WX    TMP DP  RH WIND       PRES   REMARKS
BUFFALO          N/A     45  36  70 NW10      29.50R
FAITH            N/A     53  40  61 SW12      29.53F
MOBRIDGE       MOCLDY    44  35  70 SE12      29.52R
$$

SDZ012>016-024>037-041>051-057-063-072>074-200700-
SOUTHWEST AND SOUTH CENTRAL SOUTH DAKOTA

CITY           SKY/WX    TMP DP  RH WIND       PRES   REMARKS
RAPID CTY ARPT CLOUDY    56  35  45 W7        29.54F
PIERRE         CLOUDY    58  40  51 S12       29.56R
CUSTER         CLOUDY    44  32  62 SW7       29.62F
ELLSWORTH AFB  CLOUDY    54  36  49 W12       29.54F
PHILIP         MOCLDY    48  37  65 CALM      29.55R
PINE RIDGE     CLOUDY    40  35  83 CALM      29.60R
SPEARFISH      FAIR      50  34  53 W12       29.59R
WINNER         FAIR      61  48  62 S18       29.58S
$$

SDZ004>011-016>023-039-040-200700-
NORTHEAST SOUTH DAKOTA

CITY           SKY/WX    TMP DP  RH WIND       PRES   REMARKS
ABERDEEN       CLOUDY    53  46  77 S22G29    29.59R
WATERTOWN      CLOUDY    50  46  86 S16       29.65F
BROOKINGS      CLOUDY    51  47  86 S12       29.69F
SISSETON         N/A     54  48  80 S18       29.61F
$$

SDZ017-020-022-023-036>040-048>070-200700-
SOUTHEAST SOUTH DAKOTA

CITY           SKY/WX    TMP DP  RH WIND       PRES   REMARKS
SIOUX FALLS    CLOUDY    55  51  86 S12       29.72F
HURON          CLOUDY    54  49  83 S14       29.60F
CHAMBERLAIN    CLOUDY    60  49  68 S15G21    29.58R
MITCHELL       CLOUDY    56  50  80 S18G25    29.64F
YANKTON        CLOUDY    57  48  72 S14       29.71S
$$

ABBREVIATIONS USED IN REMARKS
   TC - TEMPERATURE IN CELSIUS
  WCI - WIND CHILL INDEX
   HX - HEAT INDEX
  VSB - VISIBILITY





USA.gov is the U.S. government's official web portal to all federal, state and local government web resources and services.